Weather History for Ukiah, CA

Change the Weather History Date:

Saturday, July 20, 2013

  Actual Average Record
Temperature  
Mean Temperature 84 °F 75 °F  
Max Temperature 108 °F 93 °F 111 °F (1938)
Min Temperature 60 °F 56 °F 42 °F (1923)
Degree Days  
Heating Degree Days 0 0  
Month to date heating degree days 0  
Since 1 June heating degree days 32  
Since 1 July heating degree days 0  
Cooling Degree Days 19 10  
Month to date cooling degree days 173  
Year to date cooling degree days 337  
Since 1 June cooling degree days 285  
Growing Degree Days 34 (Base 50)    
Moisture  
Dew Point 53 °F    
Average Humidity 46    
Maximum Humidity 78    
Minimum Humidity 13    
Precipitation  
Precipitation 0.00 in 0.00 in 4.56 in (1999)
Month to date precipitation 0.03 0.04  
Year to date precipitation 5.61 23.42  
Since 1 July precipitation 0.03 0.04  
Snow  
Snow 0.00 in - - ()
Month to date snowfall 0.0  
Since 1 June snowfall 0.0  
Since 1 July snowfall 0.0  
Snow Depth -    
Sea Level Pressure  
Sea Level Pressure 29.74 in    
Wind  
Wind Speed 2 mph (ESE)    
Max Wind Speed 12 mph    
Max Gust Speed 15 mph    
Visibility 10 miles    
Events      
T = Trace of Precipitation, MM = Missing Value Source: NWS Daily Summary

Daily Weather History Graph

Daily Weather History Graph

Search for Another Location

Airport:

Trip Planner

Search our weather history database for the weather conditions in past years. The results will help you decide how hot, cold, wet, or windy it might be!

Date:

Astronomy

Jul. 20, 2013 Rise Set
Actual Time 6:03 AM PDT 8:34 PM PDT
Civil Twilight 5:32 AM PDT 9:05 PM PDT
Nautical Twilight 4:54 AM PDT 9:43 PM PDT
Astronomical Twilight 4:11 AM PDT 10:26 PM PDT
Moon 6:43 PM PDT (7/20) 3:49 AM PDT (7/20)
Length of Visible Light 15h 32m
Length of Day
14h 31m
Waxing Gibbous, 94% of the Moon is Illuminated
Jul 20
Waxing Gibbous
Jul 22
Full
Jul 29
Last Quarter
Aug 6
New
Aug 14
First Quarter

Hourly Weather History & Observations

Time (PDT) Temp. Heat Index Dew Point Humidity Pressure Visibility Wind Dir Wind Speed Gust Speed Precip Events Conditions
12:56 AM 70.0 °F - 54.0 °F 57% 29.81 in 10.0 mi Calm Calm - N/A   Clear
1:56 AM 64.9 °F - 55.0 °F 70% 29.81 in 10.0 mi Calm Calm - N/A   Clear
2:56 AM 64.0 °F - 54.0 °F 70% 29.80 in 10.0 mi Calm Calm - N/A   Clear
3:56 AM 64.0 °F - 53.1 °F 67% 29.80 in 10.0 mi Calm Calm - N/A   Clear
4:56 AM 63.0 °F - 53.1 °F 70% 29.79 in 10.0 mi Calm Calm - N/A   Clear
5:56 AM 61.0 °F - 52.0 °F 72% 29.79 in 10.0 mi Calm Calm - N/A   Clear
6:56 AM 61.0 °F - 53.1 °F 75% 29.80 in 10.0 mi Calm Calm - N/A   Clear
7:56 AM 66.9 °F - 54.0 °F 63% 29.81 in 10.0 mi Calm Calm - N/A   Clear
8:56 AM 72.0 °F - 55.0 °F 55% 29.81 in 10.0 mi Calm Calm - N/A   Clear
9:56 AM 80.1 °F 80.0 °F 54.0 °F 40% 29.80 in 10.0 mi Calm Calm - N/A   Clear
10:56 AM 84.9 °F 83.6 °F 55.0 °F 36% 29.78 in 10.0 mi ESE 3.5 mph - N/A   Clear
11:56 AM 91.9 °F 90.0 °F 55.0 °F 29% 29.76 in 10.0 mi East 4.6 mph - N/A   Clear
12:56 PM 98.1 °F 95.7 °F 53.1 °F 22% 29.74 in 10.0 mi Calm Calm - N/A   Clear
1:56 PM 102.0 °F 99.7 °F 53.1 °F 19% 29.71 in 10.0 mi East 3.5 mph - N/A   Clear
2:56 PM 106.0 °F 105.1 °F 55.0 °F 19% 29.69 in 10.0 mi NW 5.8 mph - N/A   Clear
3:56 PM 107.1 °F - 46.0 °F 13% 29.68 in 10.0 mi NW 9.2 mph - N/A   Clear
4:56 PM 105.1 °F - 46.9 °F 14% 29.66 in 10.0 mi NW 5.8 mph - N/A   Clear
5:56 PM 102.9 °F - 46.0 °F 15% 29.66 in 10.0 mi Variable 3.5 mph - N/A   Clear
6:56 PM 100.0 °F - 46.9 °F 16% 29.66 in 10.0 mi North 6.9 mph - N/A   Clear
7:56 PM 93.0 °F - 51.1 °F 24% 29.67 in 10.0 mi Calm Calm - N/A   Clear
8:56 PM 84.9 °F 83.6 °F 55.0 °F 36% 29.69 in 10.0 mi SSE 4.6 mph - N/A   Clear
9:56 PM 82.0 °F 81.6 °F 55.9 °F 41% 29.70 in 10.0 mi South 5.8 mph - N/A   Clear
10:56 PM 77.0 °F - 55.0 °F 47% 29.72 in 10.0 mi SSE 6.9 mph - N/A   Clear
11:56 PM 73.9 °F - 53.1 °F 48% 29.72 in 10.0 mi SSE 5.8 mph - N/A   Clear